TimeHST,TemperatureF,Dew PointF,Humidity,Sea Level PressureIn,VisibilityMPH,Wind Direction,Wind SpeedMPH,Gust SpeedMPH,PrecipitationIn,Events,Conditions,WindDirDegrees,DateUTC
12:46 AM,41.0,35.6,81,29.61,2.5,West,25.3,52.9,0.07,Rain,Light Rain,280,2012-11-15 10:46:00
12:53 AM,41.0,37.4,87,29.61,4.0,West,33.4,50.6,0.07,Rain,Light Rain,270,2012-11-15 10:53:00
1:01 AM,39.9,37.0,89,29.90,3.0,WNW,32.2,50.6,0.08,Rain,Rain,290,2012-11-15 11:01:00
1:09 AM,39.2,37.4,93,29.62,2.0,West,31.1,48.3,0.01,Rain,Light Rain,280,2012-11-15 11:09:00
1:41 AM,39.2,37.4,93,29.67,4.0,West,31.1,43.7,0.02,Rain,Light Rain,280,2012-11-15 11:41:00
3:01 AM,39.0,35.1,86,30.02,9.0,West,25.3,38.0,0.01,,Overcast,260,2012-11-15 13:01:00
4:01 AM,39.0,35.1,86,30.08,3.0,West,17.3,33.4,0.01,Rain,Light Rain,270,2012-11-15 14:01:00
4:14 AM,37.4,35.6,93,29.80,3.0,West,17.3,31.1,0.00,Rain,Light Rain,280,2012-11-15 14:14:00
4:44 AM,37.4,33.8,87,29.82,4.0,WNW,10.4,28.8,0.00,Rain,Light Rain,290,2012-11-15 14:44:00
5:01 AM,37.9,34.0,86,30.11,3.0,WNW,9.2,21.9,0.01,Rain,Light Rain,300,2012-11-15 15:01:00
6:01 AM,37.9,34.0,86,30.12,4.0,WNW,13.8,26.5,0.00,Rain,Light Rain,300,2012-11-15 16:01:00
7:01 AM,36.0,32.0,86,30.14,4.0,West,12.7,24.2,0.04,Rain,Light Rain,280,2012-11-15 17:01:00
8:01 AM,36.0,30.9,82,30.14,4.0,West,20.7,35.7,0.01,,Overcast,280,2012-11-15 18:01:00
8:23 AM,35.6,30.2,81,29.87,2.5,West,24.2,34.5,0.00,Rain,Rain,270,2012-11-15 18:23:00
8:31 AM,35.6,30.2,81,29.88,1.5,West,21.9,34.5,0.00,Snow,Light Snow,280,2012-11-15 18:31:00
8:33 AM,35.6,30.2,81,29.88,2.0,WNW,20.7,32.2,0.00,Snow,Light Snow,290,2012-11-15 18:33:00
8:38 AM,35.6,30.2,81,29.88,7.0,WNW,24.2,43.7,0.00,Rain,Light Rain,290,2012-11-15 18:38:00
8:49 AM,35.6,30.2,81,29.89,2.5,WNW,23.0,41.4,0.00,Rain,Light Rain,300,2012-11-15 18:49:00
9:01 AM,33.8,30.2,87,29.90,6.0,WNW,28.8,40.3,0.00,Rain,Light Rain,290,2012-11-15 19:01:00
9:11 AM,33.8,30.2,87,29.90,1.0,WNW,24.2,42.6,0.00,Snow,Light Snow,300,2012-11-15 19:11:00
9:21 AM,33.8,28.4,81,29.90,6.0,WNW,24.2,39.1,0.00,Snow,Light Snow,290,2012-11-15 19:21:00
9:42 AM,33.8,26.6,75,29.92,10.0,West,24.2,49.5,0.00,Rain,Light Rain,280,2012-11-15 19:42:00
10:01 AM,33.1,25.0,72,30.21,10.0,West,26.5,40.3,0.00,,Overcast,280,2012-11-15 20:01:00
11:01 AM,32.0,21.9,66,30.22,10.0,West,29.9,41.4,0.00,,Overcast,260,2012-11-15 21:01:00
12:01 PM,32.0,21.9,66,30.25,10.0,West,31.1,42.6,N/A,,Overcast,280,2012-11-15 22:01:00
1:01 PM,32.0,21.0,64,30.25,10.0,West,29.9,50.6,0.00,,Overcast,260,2012-11-15 23:01:00
1:42 PM,32.0,23.0,69,29.98,9.0,WNW,23.0,36.8,0.00,Snow,Light Snow,290,2012-11-15 23:42:00
2:01 PM,32.0,21.9,66,30.27,10.0,WNW,25.3,42.6,0.00,,Overcast,290,2012-11-16 00:01:00
3:01 PM,30.9,21.9,69,30.27,10.0,West,27.6,41.4,0.00,,Mostly Cloudy,270,2012-11-16 01:01:00
4:01 PM,30.0,21.0,69,30.27,10.0,West,31.1,57.5,N/A,,Overcast,270,2012-11-16 02:01:00
5:01 PM,30.0,21.9,72,30.30,10.0,West,33.4,49.5,0.00,,Overcast,280,2012-11-16 03:01:00
6:01 PM,30.0,21.0,69,30.31,10.0,West,31.1,49.5,N/A,,Mostly Cloudy,260,2012-11-16 04:01:00
6:47 PM,30.2,21.2,69,30.03,10.0,West,31.1,42.6,N/A,,Scattered Clouds,270,2012-11-16 04:47:00
7:01 PM,30.9,21.9,69,30.32,10.0,West,35.7,47.2,N/A,,Scattered Clouds,280,2012-11-16 05:01:00
8:01 PM,30.9,21.9,69,30.35,10.0,West,32.2,42.6,N/A,,Scattered Clouds,270,2012-11-16 06:01:00
9:01 PM,30.9,21.9,69,30.35,10.0,West,27.6,40.3,N/A,,Mostly Cloudy,280,2012-11-16 07:01:00
10:01 PM,30.9,21.9,69,30.35,10.0,West,31.1,39.1,N/A,,Partly Cloudy,260,2012-11-16 08:01:00
11:01 PM,30.9,21.9,69,30.35,10.0,West,26.5,40.3,N/A,,Scattered Clouds,280,2012-11-16 09:01:00